This is the latest recevied weather packets stored in our database for station/object W0VI. If no packets are shown the sender has not sent any weather packets the latest 1 day(s).
| Time | Temp. | Humidity | Pressure | Rain* | Wind** | Luminosity | Snow |
|---|---|---|---|---|---|---|---|
| 1778018019 | 8.89° C | 42% | 1010.8 hPa | 0 mm | 2.24 m/s, 290° | 171 W/m² | - |
| 1778017717 | 8.89° C | 42% | 1010.8 hPa | 0 mm | 2.24 m/s, 262° | 109 W/m² | - |
| 1778017414 | 9.44° C | 42% | 1010.9 hPa | 0 mm | 2.24 m/s, 292° | 112 W/m² | - |
| 1778017111 | 9.44° C | 42% | 1010.9 hPa | 0 mm | 1.34 m/s, 40° | 486 W/m² | - |
| 1778016809 | 9.44° C | 41% | 1010.9 hPa | 0 mm | 2.24 m/s, 229° | 223 W/m² | - |
| 1778016504 | 8.89° C | 42% | 1011.1 hPa | 0 mm | 2.24 m/s, 303° | 161 W/m² | - |
| 1778016202 | 8.89° C | 41% | 1010.9 hPa | 0 mm | 4.02 m/s, 309° | 174 W/m² | - |
| 1778015898 | 8.89° C | 42% | 1010.8 hPa | 0 mm | 1.79 m/s, 298° | 200 W/m² | - |
| 1778015596 | 8.89° C | 42% | 1011.1 hPa | 0 mm | 3.13 m/s, 314° | 250 W/m² | - |
| 1778015292 | 8.89° C | 42% | 1010.8 hPa | 0 mm | 3.13 m/s, 293° | 219 W/m² | - |
| 1778014989 | 8.89° C | 41% | 1010.9 hPa | 0 mm | 6.26 m/s, 295° | 198 W/m² | - |
| 1778014686 | 8.89° C | 42% | 1010.8 hPa | 0 mm | 3.13 m/s, 268° | 168 W/m² | - |
| 1778014384 | 8.89° C | 42% | 1011 hPa | 0 mm | 3.58 m/s, 276° | 138 W/m² | - |
| 1778014080 | 8.89° C | 41% | 1010.9 hPa | 0 mm | 4.92 m/s, 326° | 195 W/m² | - |
| 1778013778 | 8.89° C | 41% | 1010.9 hPa | 0 mm | 6.26 m/s, 338° | 217 W/m² | - |
| 1778013475 | 8.89° C | 41% | 1010.8 hPa | 0 mm | 2.68 m/s, 308° | 220 W/m² | - |
| 1778013172 | 8.89° C | 41% | 1010.9 hPa | 0 mm | 5.36 m/s, 280° | 202 W/m² | - |
| 1778012868 | 9.44° C | 42% | 1010.9 hPa | 0 mm | 1.34 m/s, 304° | 229 W/m² | - |
| 1778012564 | 10° C | 40% | 1010.9 hPa | 0 mm | 4.02 m/s, 278° | 255 W/m² | - |
| 1778012261 | 9.44° C | 41% | 1011 hPa | 0 mm | 2.68 m/s, 269° | 754 W/m² | - |
| 1778011959 | 9.44° C | 40% | 1011 hPa | 0 mm | 3.13 m/s, 270° | 344 W/m² | - |
| 1778011657 | 9.44° C | 40% | 1011.1 hPa | 0 mm | 3.58 m/s, 277° | 468 W/m² | - |
| 1778011354 | 9.44° C | 40% | 1011.2 hPa | 0 mm | 5.36 m/s, 293° | 814 W/m² | - |
| 1778011049 | 8.89° C | 41% | 1011.1 hPa | 0 mm | 2.24 m/s, 287° | 309 W/m² | - |
| 1778010747 | 9.44° C | 41% | 1010.9 hPa | 0 mm | 3.13 m/s, 302° | 264 W/m² | - |
* Rain latest hour (hover to see other rain measurements)
** Current wind speed in m/s (hover to see current wind gust speed)